Location: Rometta
(44.2000°N, 10.0500°E)
Time: 07:25:34
(UTC+00:00)

Lacrosse 5 - Visible Passes

Search period start: 09 May 2021 00:00
Search period end: 19 May 2021 00:00
Orbit: 718 x 721 km, 57.0° (Epoch: 02 April)

Date Brightness Start Highest point End Pass type
(mag) Time Alt. Az. Time Alt. Az. Time Alt. Az.
09 May 2.3 00:50:13 47° SE 00:50:13 47° SE 00:55:02 10° ENE visible
09 May 2.8 02:29:24 15° W 02:33:14 40° NNW 02:38:02 10° NE visible
09 May 3.5 23:58:45 23° E 23:58:45 23° E 00:01:27 10° ENE visible
10 May 2.1 01:37:56 36° WSW 01:39:54 62° NW 01:44:57 10° NE visible
10 May 3.8 03:19:41 10° WNW 03:23:45 23° NNW 03:27:48 10° NE visible
11 May 1.7 00:46:25 78° S 00:46:42 82° SE 00:51:49 10° NE visible
11 May 3.4 02:25:44 10° W 02:30:10 29° NNW 02:34:38 10° NE visible
11 May 2.7 23:54:52 39° E 23:54:52 39° E 23:58:32 10° ENE visible
12 May 2.9 01:34:02 23° W 01:36:43 40° NNW 01:41:32 10° NE visible
12 May 4.1 03:17:09 10° NW 03:20:53 20° N 03:24:38 10° NE visible
12 May 3.8 23:03:14 18° E 23:03:14 18° E 23:04:57 10° ENE visible
13 May 2.1 00:42:24 51° W 00:43:24 62° NW 00:48:28 10° NE visible
13 May 3.8 02:23:11 10° WNW 02:27:14 23° NNW 02:31:18 10° NE visible
13 May 1.9 23:50:43 71° ENE 23:50:43 71° ENE 23:55:19 10° NE visible
14 May 3.5 01:29:52 13° W 01:33:40 29° NNW 01:38:07 10° NE visible
14 May 4.3 03:14:27 10° NW 03:18:04 19° N 03:21:41 10° NE visible
14 May 3.0 22:58:58 33° E 22:58:58 33° E 23:02:02 10° ENE visible
15 May 2.9 00:38:06 27° W 00:40:13 41° NNW 00:45:03 10° NE visible
15 May 4.2 02:20:38 10° NW 02:24:23 20° N 02:28:08 10° NE visible
15 May 3.9 22:07:06 16° E 22:07:06 16° E 22:08:26 10° ENE visible
15 May 2.1 23:46:15 57° WNW 23:46:54 63° NW 23:51:58 10° NE visible
16 May 3.9 01:26:40 10° WNW 01:30:44 23° NNW 01:34:48 10° NE visible
16 May 4.3 03:11:32 10° NW 03:15:15 20° N 03:18:59 10° NE visible
16 May 1.9 22:54:17 69° ENE 22:54:17 69° ENE 22:58:49 10° NE visible
17 May 3.6 00:33:25 13° W 00:37:10 29° NNW 00:41:38 10° NE visible
17 May 4.4 02:17:57 10° NW 02:21:34 19° N 02:25:11 10° NE visible
17 May 2.7 22:02:09 36° E 22:02:09 36° E 22:05:32 10° ENE visible
17 May 3.0 23:41:17 25° W 23:43:43 41° NNW 23:48:33 10° NE visible
18 May 4.3 01:24:07 10° NW 01:27:52 20° N 01:31:38 10° NE visible
18 May 4.3 03:08:23 10° NW 03:12:24 23° NNE 03:16:26 10° ENE visible
18 May 3.4 21:09:47 20° E 21:09:47 20° E 21:11:56 10° ENE visible
18 May 2.2 22:48:53 43° W 22:50:24 63° NW 22:55:29 10° NE visible
